Location: Squirrel Cove
(50.1074°N, 124.9139°W)
Time: 16:21:27
(UTC-07:00)

Envisat - Pass Details

Date: 20 September 2024
Orbit: 762 x 764 km, 98.3° (Epoch: 04 October)

Event Time Altitude Azimuth Distance (km) Brightness Sun altitude
Rises 03:57:37 0° 20° (NNE) 3,238 7.2 -28.2°
Reaches altitude 10° 04:00:05 10° 28° (NNE) 2,308 6.3 -27.9°
Maximum altitude 04:04:50 39° 97° (E) 1,135 4.1 -27.3°
Enters shadow 04:06:37 29° 140° (SE) 1,364 4.2 -27.1°
